This demonstration page uses our WeatherBlox Daily Observations layout. Learn more.

Left ArrowRight Arrow

39.08367, -84.50855

Hourly Observations for March 16, 2020

Temp ( °F °C ) Dew Point ( °F °C ) Humidity (%) Winds ( mph kmh ) Pressure ( in mb ) Visibility ( mi km ) Precip ( " mm )
12:53 am 00:53 Cloudy 42 5.6 33 0.6 71 71 NNE 5 7 30.46 1032 10 16 N/A
1:53 am 01:53 Cloudy 41 5 33 0.6 73 73 NE 5 7 30.44 1031 10 16 N/A
2:53 am 02:53 Cloudy 41 5 33 0.6 73 73 NE 8 13 30.42 1030 10 16 N/A
3:53 am 03:53 Cloudy 40 4.4 31 -0.6 70 70 NE 7 11 30.40 1030 10 16 N/A
4:53 am 04:53 Cloudy 39 3.9 30 -1.1 70 70 NE 6 9 30.38 1029 10 16 N/A
5:53 am 05:53 Cloudy 39 3.9 30 -1.1 70 70 NNE 5 7 30.39 1029 10 16 N/A
6:53 am 06:53 Cloudy 39 3.9 29 -1.7 67 67 NE 5 7 30.37 1029 10 16 N/A
7:53 am 07:53 Cloudy 39 3.9 30 -1.1 70 70 NNE 3 6 30.39 1029 10 16 N/A
8:53 am 08:53 Cloudy 40 4.4 30 -1.1 68 68 NE 3 6 30.40 1029 10 16 N/A
9:53 am 09:53 Cloudy 41 5 31 -0.6 67 67 ENE 3 6 30.38 1029 10 16 N/A
10:53 am 10:53 Cloudy 43 6.1 32 undefined 65 65 N N/A 30.37 1028 10 16 N/A
11:53 am 11:53 Cloudy 46 7.8 35 1.7 66 66 S 7 11 30.34 1027 10 16 N/A
12:53 pm 12:53 Cloudy 48 8.9 35 1.7 61 61 S 7 11 30.34 1027 10 16 N/A
1:53 pm 13:53 Partly Cloudy 48 8.9 36 2.2 63 63 VRB 6 9 30.30 1026 10 16 N/A
2:53 pm 14:53 Mostly Cloudy 49 9.4 36 2.2 61 61 SSW 7 11 30.27 1025 10 16 N/A
3:53 pm 15:53 Cloudy 47 8.3 36 2.2 66 66 SSE 8 13 30.25 1024 10 16 N/A
4:53 pm 16:53 Cloudy 46 7.8 37 2.8 71 71 S 9 15 30.24 1024 10 16 N/A
5:53 pm 17:53 Cloudy 47 8.3 37 2.8 69 69 S 7 11 30.23 1024 10 16 N/A
6:53 pm 18:53 Cloudy 46 7.8 37 2.8 71 71 SSE 6 9 30.20 1023 10 16 N/A
7:53 pm 19:53 Cloudy 46 7.8 37 2.8 71 71 S 6 9 30.23 1024 10 16 N/A
8:53 pm 20:53 Cloudy 46 7.8 37 2.8 71 71 S 5 7 30.22 1024 10 16 N/A
9:53 pm 21:53 Cloudy 46 7.8 38 3.3 73 73 S 3 6 30.22 1024 10 16 0.00 0.00
10:53 pm 22:53 Cloudy 45 7.2 38 3.3 77 77 N N/A 30.23 1024 10 16 0.00 0.00
11:53 pm 23:53 Cloudy 45 7.2 39 3.9 80 80 S 3 6 30.20 1023 10 16 0.00 0.00

Powered by AerisWeather